Regional Weather Roundup
Issued by NWS

Home | Current Version | Previous Version | Graphics & Text | Print | Product List | Glossary Off
Versions: 1 2 3 4 5 6 7 8 9 10 11 12 13 14 15 16 17 18 19 20 21 22 23 24 25 26 27 28 29 30 31 32 33 34 35 36 37 38 39 40 41 42 43 44 45 46 47 48 49 50

000
ASUS43 KMKX 102310
RWRWI

WISCONSIN REGIONAL WEATHER ROUNDUP
NATIONAL WEATHER SERVICE MILWAUKEE/SULLIVAN WI
500 PM CST WED FEB 10 2016

NOTE: "FAIR" INDICATES FEW OR NO CLOUDS BELOW 12,000 FEET WITH NO
SIGNIFICANT WEATHER AND/OR OBSTRUCTIONS TO VISIBILITY.

WIZ001-002-006>008-014>016-023>028-110000-
NORTHWEST WISCONSIN

CITY           SKY/WX    TMP DP  RH WIND       PRES   REMARKS
SUPERIOR ARPT  PTCLDY    10  -5  50 CALM      30.17R
ASHLAND        CLEAR      6  -4  63 N3        30.16R
HAYWARD        CLEAR     10  -4  53 N5        30.10R WCI   2
SIREN          CLEAR     10  -5  52 CALM      30.15R
CUMBERLAND     PTCLDY     9  -4  56 N7        30.10R WCI  -3
RICE LAKE      CLEAR     10  -3  54 NW5       30.13R WCI   2
CHETEK         MOCLDY    10  -2  58 CALM      30.12R
LADYSMITH      CLEAR     11  -2  55 N8        30.10R WCI  -1
EAU CLAIRE     PTCLDY     9  -4  55 NW7       30.12R WCI  -2
MENOMONIE      CLEAR     11  -5  48 NW6       30.14R WCI   1
NEW RICHMOND   PTCLDY     8  -3  60 CALM      30.14R
OSCEOLA        PTCLDY     9  -3  58 N7        30.19R WCI  -2
$$

WIZ003>005-009-010-017-018-110000-
NORTH CENTRAL WISCONSIN

CITY           SKY/WX    TMP DP  RH WIND       PRES   REMARKS
MANITOWISH WTR CLOUDY     6  -3  66 NW8       30.04R WCI  -7
ARBOR VITAE    CLOUDY     9  -1  64 N7        30.03R WCI  -2
WOODRUFF       CLOUDY     9  -1  64 N7        30.03R WCI  -2
RHINELANDER    CLOUDY     8  -4  58 NW10      30.02R WCI  -6
EAGLE RIVER    CLOUDY     6  -6  58 NW10      30.02R WCI  -8
LAND O LAKES   CLOUDY     6  -2  68 N9        30.03R WCI  -8
PHILLIPS       CLOUDY     7  -3  65 N6        30.05R WCI  -3
TOMAHAWK       CLOUDY     8  -3  59 NW12      30.04R WCI  -7
MEDFORD        CLEAR      8  -4  58 N9        30.03R WCI  -5
MERRILL        MOCLDY    11  -4  51 N12       30.05R WCI  -3
$$

WIZ029-030-035-036-043>047-110000-
CENTRAL WISCONSIN

CITY           SKY/WX    TMP DP  RH WIND       PRES   REMARKS
WAUSAU         CLEAR     12  -4  48 NW10      30.03R WCI  -1
MOSINEE        CLEAR     10  -2  56 N8        30.04R WCI  -1
MARSHFIELD     CLEAR      9  -4  55 NW9       30.04R WCI  -4
STEVENS POINT  CLEAR     10  -5  49 NW6       30.05R WCI   1
WAUPACA        CLEAR     15  -5  40 NW7       30.07R WCI   5
WAUTOMA        CLEAR     11  -3  53 NW7       30.08R WCI   0
WISC RAPIDS    CLEAR     10  -5  50 NW8       30.08R WCI  -2
CAMP DOUGLAS   MOCLDY    12  -2  52 NW7       30.08R WCI   2
$$

WIZ011>013-019>022-031-037>040-048>050-110000-
NORTHEAST WISCONSIN

CITY           SKY/WX    TMP DP  RH WIND       PRES   REMARKS
ANTIGO         PTCLDY     7  -4  58 N8        30.01R WCI  -5
SHAWANO        CLEAR     16  -5  39 N7        30.06R WCI   7
OCONTO         CLEAR     12  -5  46 N8        30.06R WCI   1
STURGEON BAY   CLEAR     12  -6  44 N14       30.06R WCI  -3
GREEN BAY      CLEAR     11  -6  46 NW7       30.06R WCI   0
MANITOWOC      CLEAR     13  -3  49 NW7       30.07R WCI   3
APPLETON       PTCLDY    12  -8  40 NW8       30.03R WCI   1
CLINTONVILLE   CLEAR     14  -6  41 NW10      30.06R WCI   1
OSHKOSH        CLEAR     12  -5  46 N9        30.06R WCI   0
$$

WIZ032>034-041-042-053>061-110000-
SOUTHWEST WISCONSIN

CITY           SKY/WX    TMP DP  RH WIND       PRES   REMARKS
LA CROSSE      CLEAR     10  -3  55 NW10      30.13R WCI  -4
SPARTA         CLEAR     14  -1  53 NW5       30.10S WCI   6
VIROQUA        PTCLDY     8  -3  59 CALM      30.06R
BOSCOBEL       CLEAR     14  -3  47 N8        30.11R WCI   3
PRAIRIE DU CHI CLEAR     14  -3  45 NW6       30.11R WCI   5
PLATTEVILLE    CLOUDY    13   2  59 CALM      30.07R
$$

WIZ056-057-062-063-064-067-068-110000-
SOUTH CENTRAL WISCONSIN

CITY           SKY/WX    TMP DP  RH WIND       PRES   REMARKS
REEDSBURG      CLEAR     13  -2  51 NW8       30.08R WCI   1
BARABOO/DELLS  CLEAR     12  -3  49 N6        30.07R WCI   3
LONE ROCK      CLEAR     13  -2  51 N8        30.11  WCI   2
MINERAL POINT  CLEAR     14  -4  44 NW5       30.06R WCI   6
MADISON        PTCLDY    13  -2  51 NW5       30.07R WCI   5
MIDDLETON      CLEAR     14   0  52 NW6       30.07R WCI   5
WATERTOWN      PTCLDY    12   1  59 N9        30.06R WCI   0
MONROE         CLEAR     14   0  52 NW3       30.05R
JANESVILLE     PTCLDY    16   1  53 NW12      30.07R WCI   3
$$

WIZ051-052-058>065-066-070>072-110000-
SOUTHEAST WISCONSIN

CITY           SKY/WX    TMP DP  RH WIND       PRES   REMARKS
MILWAUKEE      MOCLDY    13  -3  49 NW10      30.07R WCI   0
WAUKESHA       CLOUDY    10  -2  56 N9        30.05R WCI  -2
MILWAUKEE/TIMM CLEAR     12  -4  48 NW13      30.07R WCI  -3
RACINE         MOCLDY    13  -3  49 W8G17     30.08R WCI   2
BURLINGTON     CLOUDY    11  -1  58 N9        30.06R WCI  -2
KENOSHA        MOCLDY    13   0  56 NW7       30.06R WCI   3
FOND DU LAC    CLEAR     12  -3  51 NW6       30.06R WCI   3
SHEBOYGAN      CLEAR     11  -5  48 NW6       30.06R WCI   1
WEST BEND      CLEAR     12  -4  48 CALM      30.05R
JUNEAU         CLEAR     11  -1  57 NW5       30.07R WCI   3
$$

LSZ147-162-110000-
LAKE SUPERIOR

STATION/POSITION TIME  TEMP    WIND        PRES    WAVE
                       AIR SEA DIR/SP/G            HT/PER
                 (UTC) (F)     (DEG/KT/KT) (MB)    (FT/S)
DEVILS ISLAND    2300   11     330/ 11/ 14 1022.8R
SAXON HARBOR     2200   11                 1020.3R
$$

LMZ867-665-643>646-110000-
LAKE MICHIGAN

STATION/POSITION TIME  TEMP    WIND        PRES    WAVE
                       AIR SEA DIR/SP/G            HT/PER
                 (UTC) (F)     (DEG/KT/KT) (MB)    (FT/S)
CHAMBERS ISLAND  2200   13     300/ 12/ 20 1016.9R
ALGOMA LAKESHORE 2211          340/ 11/ 16   N/A
KEWAUNEE LAKESHO 2200   14     320/  7/ 13   N/A
SHEBOYGAN LAKESH 2300   12     310/ 10/ 13 1019.9R
PORT WASHINGTON  2240   14     320/  8/ 13 1019.3R
MILWAUKEE LAKESH 2210   14     330/ 10/ 12   N/A
KENOSHA   LAKESH 2300   13     330/ 10/ 13 1018.3R
$$

TC  - TEMPERATURE IN CELSIUS
VSB - VISIBILITY IN STATUTE MILES
WCI - WIND CHILL INDEX
HX  - HEAT INDEX




USA.gov is the U.S. government's official web portal to all federal, state and local government web resources and services.